PSMAS SEGS-MDPC

Flight info

Callsign PSMAS
Flight time 3h 15m
Altitude 45000
Route EKOTI3A REDUS UW21 MIBAR/N0473F430 UM542 TBG/N0479F410 UM525 VESKA VESKA1W
Aircraft C700/M-SBDE2E3GHIJ3J4J7M3P2RWXYZ/LB1D1

Departure

Time 2026-04-30 11:52
Airport Seymour Galapagos Ecological Airport (SEGS)

Arrival

Time 2026-04-30 15:08
Airport Punta Cana International Airport (MDPC)
Time Latitude Longitude Altitude Speed Heading
2026-04-30 11:45 -0.44602 -90.27006 152 ft 0 kts 83°
2026-04-30 11:51 -0.44601 -90.27006 152 ft 0 kts 71°
2026-04-30 11:51 -0.44593 -90.27008 148 ft 4 kts 324°
2026-04-30 11:51 -0.44518 -90.27077 151 ft 25 kts 319°
2026-04-30 11:51 -0.44503 -90.27212 147 ft 16 kts 213°
2026-04-30 11:52 -0.44650 -90.27115 154 ft 62 kts 144°
2026-04-30 11:52 -0.45253 -90.26678 176 ft 149 kts 142°
2026-04-30 11:52 -0.46217 -90.25999 916 ft 180 kts 146°
2026-04-30 11:52 -0.47355 -90.25209 1396 ft 212 kts 146°
2026-04-30 11:53 -0.48555 -90.24375 1447 ft 205 kts 145°
2026-04-30 11:53 -0.49738 -90.23561 2393 ft 208 kts 146°
2026-04-30 11:53 -0.50958 -90.22719 3591 ft 223 kts 143°
2026-04-30 11:53 -0.51931 -90.21432 4548 ft 250 kts 107°
2026-04-30 11:54 -0.51857 -90.19663 5703 ft 264 kts 68°
2026-04-30 11:54 -0.50699 -90.18256 7147 ft 269 kts 38°
2026-04-30 11:54 -0.49139 -90.17182 8458 ft 277 kts 36°
2026-04-30 11:54 -0.47586 -90.16001 9779 ft 283 kts 42°
2026-04-30 11:55 -0.46171 -90.14549 10687 ft 304 kts 51°
2026-04-30 11:55 -0.44815 -90.12852 11727 ft 316 kts 52°
2026-04-30 11:55 -0.43386 -90.11168 13076 ft 321 kts 49°
2026-04-30 11:55 -0.41861 -90.09504 14232 ft 328 kts 48°
2026-04-30 11:56 -0.40323 -90.07793 15342 ft 333 kts 49°
2026-04-30 11:56 -0.38783 -90.06033 16422 ft 340 kts 50°
2026-04-30 11:56 -0.37211 -90.04247 17505 ft 346 kts 49°
2026-04-30 11:56 -0.35600 -90.02432 18506 ft 352 kts 49°
2026-04-30 11:57 -0.33961 -90.00584 19371 ft 359 kts 50°
2026-04-30 11:57 -0.32290 -89.98693 20206 ft 367 kts 50°
2026-04-30 11:57 -0.30581 -89.96759 21006 ft 376 kts 50°
2026-04-30 11:57 -0.28832 -89.94784 21806 ft 383 kts 50°
2026-04-30 11:58 -0.27048 -89.92770 22603 ft 391 kts 50°
2026-04-30 11:58 -0.25253 -89.90741 23366 ft 398 kts 50°
2026-04-30 11:58 -0.23380 -89.88623 24057 ft 404 kts 50°
2026-04-30 11:58 -0.21510 -89.86511 24747 ft 410 kts 50°
2026-04-30 11:59 -0.19613 -89.84367 25420 ft 415 kts 50°
2026-04-30 11:59 -0.17688 -89.82192 26077 ft 421 kts 50°
2026-04-30 11:59 -0.15737 -89.79986 26738 ft 426 kts 50°
2026-04-30 11:59 -0.13764 -89.77758 27383 ft 431 kts 50°
2026-04-30 12:00 -0.11765 -89.75499 28022 ft 437 kts 50°
2026-04-30 12:00 -0.09737 -89.73208 28657 ft 442 kts 50°
2026-04-30 12:00 -0.07691 -89.70895 29257 ft 448 kts 50°
2026-04-30 12:00 -0.05475 -89.68391 29914 ft 453 kts 50°
2026-04-30 12:01 -0.03377 -89.66020 30426 ft 458 kts 50°
2026-04-30 12:01 -0.01945 -89.64403 30779 ft 461 kts 50°
2026-04-30 12:01 0.00194 -89.61985 31297 ft 466 kts 50°
2026-04-30 12:01 0.02352 -89.59547 31806 ft 471 kts 50°
2026-04-30 12:02 0.04532 -89.57084 32290 ft 476 kts 49°
2026-04-30 12:02 0.06702 -89.54632 32763 ft 480 kts 49°
2026-04-30 12:02 0.08922 -89.52124 33313 ft 481 kts 49°
2026-04-30 12:02 0.11135 -89.49623 33939 ft 481 kts 49°
2026-04-30 12:03 0.13352 -89.47118 34495 ft 480 kts 49°
2026-04-30 12:03 0.17773 -89.42123 35667 ft 479 kts 48°
2026-04-30 12:03 0.19976 -89.39632 36235 ft 479 kts 47°
2026-04-30 12:04 0.22180 -89.37142 36789 ft 478 kts 47°
2026-04-30 12:04 0.24382 -89.34655 37329 ft 477 kts 47°
2026-04-30 12:04 0.26580 -89.32171 37841 ft 477 kts 46°
2026-04-30 12:04 0.28773 -89.29691 38345 ft 476 kts 46°
2026-04-30 12:05 0.30963 -89.27217 38750 ft 475 kts 46°
2026-04-30 12:05 0.33151 -89.24745 39102 ft 475 kts 46°
2026-04-30 12:05 0.35333 -89.22278 39439 ft 474 kts 46°
2026-04-30 12:05 0.37521 -89.19806 39759 ft 474 kts 46°
2026-04-30 12:06 0.39702 -89.17342 40062 ft 474 kts 46°
2026-04-30 12:06 0.41887 -89.14873 40342 ft 474 kts 45°
2026-04-30 12:06 0.44067 -89.12409 40615 ft 473 kts 45°
2026-04-30 12:06 0.46215 -89.09981 40849 ft 474 kts 45°
2026-04-30 12:07 0.48410 -89.07503 40846 ft 480 kts 45°
2026-04-30 12:07 0.52882 -89.02448 40849 ft 492 kts 45°
2026-04-30 12:08 0.57504 -88.97227 40866 ft 511 kts 46°
2026-04-30 12:08 0.62306 -88.91798 40865 ft 531 kts 46°
2026-04-30 12:09 0.67273 -88.86185 40861 ft 548 kts 46°
2026-04-30 12:09 0.72397 -88.80392 40863 ft 564 kts 46°
2026-04-30 12:10 0.77654 -88.74451 40862 ft 578 kts 46°
2026-04-30 12:10 0.82981 -88.68427 40861 ft 581 kts 46°
2026-04-30 12:11 0.88341 -88.62369 40863 ft 581 kts 46°
2026-04-30 12:11 0.93688 -88.56324 40860 ft 581 kts 46°
2026-04-30 12:12 0.99042 -88.50271 40862 ft 581 kts 46°
2026-04-30 12:12 1.04363 -88.44256 40862 ft 581 kts 46°
2026-04-30 12:13 1.09714 -88.38205 40862 ft 581 kts 46°
2026-04-30 12:13 1.15069 -88.32152 40862 ft 581 kts 46°
2026-04-30 12:14 1.20423 -88.26097 40865 ft 581 kts 46°
2026-04-30 12:14 1.25775 -88.20045 40860 ft 581 kts 46°
2026-04-30 12:15 1.31131 -88.13987 40860 ft 581 kts 46°
2026-04-30 12:15 1.36483 -88.07934 40864 ft 581 kts 46°
2026-04-30 12:16 1.41835 -88.01880 40867 ft 581 kts 46°
2026-04-30 12:16 1.47190 -87.95824 40865 ft 581 kts 46°
2026-04-30 12:17 1.55182 -87.86782 40863 ft 581 kts 46°
2026-04-30 12:17 1.60537 -87.80723 40864 ft 581 kts 46°
2026-04-30 12:18 1.65886 -87.74671 40862 ft 581 kts 46°
2026-04-30 12:18 1.71237 -87.68616 40861 ft 581 kts 46°
2026-04-30 12:19 1.76587 -87.62562 40863 ft 581 kts 46°
2026-04-30 12:19 1.81938 -87.56506 40862 ft 581 kts 46°
2026-04-30 12:20 1.87282 -87.50456 40860 ft 581 kts 46°
2026-04-30 12:20 1.92600 -87.44436 40859 ft 581 kts 46°
2026-04-30 12:21 1.97951 -87.38379 40858 ft 581 kts 46°
2026-04-30 12:21 2.03297 -87.32325 40853 ft 581 kts 46°
2026-04-30 12:22 2.08637 -87.26278 40854 ft 581 kts 46°
2026-04-30 12:22 2.13991 -87.20215 40853 ft 581 kts 46°
2026-04-30 12:23 2.19335 -87.14162 40853 ft 581 kts 46°
2026-04-30 12:23 2.24681 -87.08107 40853 ft 580 kts 46°
2026-04-30 12:24 2.30024 -87.02053 40853 ft 581 kts 46°
2026-04-30 12:24 2.35370 -86.95996 40854 ft 581 kts 46°
2026-04-30 12:25 2.40709 -86.89946 40856 ft 581 kts 46°
2026-04-30 12:25 2.46053 -86.83889 40856 ft 581 kts 46°
2026-04-30 12:26 2.51401 -86.77827 40856 ft 581 kts 46°
2026-04-30 12:26 2.56746 -86.71768 40855 ft 581 kts 46°
2026-04-30 12:27 2.62049 -86.65755 40854 ft 580 kts 46°
2026-04-30 12:27 2.67392 -86.59697 40857 ft 580 kts 46°
2026-04-30 12:28 2.72732 -86.53640 40857 ft 580 kts 47°
2026-04-30 12:28 2.78067 -86.47589 40856 ft 580 kts 46°
2026-04-30 12:29 2.83410 -86.41528 40857 ft 580 kts 47°
2026-04-30 12:29 2.88746 -86.35473 40857 ft 580 kts 47°
2026-04-30 12:30 2.94083 -86.29418 40855 ft 580 kts 47°
2026-04-30 12:30 2.99417 -86.23364 40858 ft 580 kts 47°
2026-04-30 12:31 3.04717 -86.17347 40856 ft 580 kts 47°
2026-04-30 12:31 3.10079 -86.11259 40856 ft 580 kts 47°
2026-04-30 12:32 3.15421 -86.05193 40856 ft 580 kts 47°
2026-04-30 12:32 3.20747 -85.99145 40858 ft 580 kts 47°
2026-04-30 12:33 3.26043 -85.93129 40857 ft 580 kts 47°
2026-04-30 12:33 3.31379 -85.87067 40860 ft 580 kts 47°
2026-04-30 12:34 3.36703 -85.81017 40856 ft 580 kts 47°
2026-04-30 12:34 3.42032 -85.74960 40856 ft 580 kts 47°
2026-04-30 12:35 3.47364 -85.68900 40853 ft 579 kts 47°
2026-04-30 12:35 3.52692 -85.62842 40852 ft 580 kts 47°
2026-04-30 12:36 3.58021 -85.56782 40855 ft 579 kts 47°
2026-04-30 12:36 3.63346 -85.50726 40856 ft 579 kts 47°
2026-04-30 12:37 3.68667 -85.44673 40853 ft 579 kts 47°
2026-04-30 12:37 3.73985 -85.38622 40854 ft 579 kts 47°
2026-04-30 12:38 3.79303 -85.32569 40854 ft 579 kts 47°
2026-04-30 12:38 3.84617 -85.26521 40853 ft 578 kts 47°
2026-04-30 12:39 3.89891 -85.20517 40854 ft 578 kts 47°
2026-04-30 12:39 3.95202 -85.14469 40853 ft 578 kts 47°
2026-04-30 12:40 4.00506 -85.08428 40850 ft 577 kts 47°
2026-04-30 12:40 4.05807 -85.02389 40853 ft 577 kts 47°
2026-04-30 12:41 4.11103 -84.96354 40853 ft 577 kts 47°
2026-04-30 12:41 4.16399 -84.90319 40853 ft 577 kts 47°
2026-04-30 12:42 4.21694 -84.84282 40848 ft 577 kts 47°
2026-04-30 12:42 4.26985 -84.78249 40847 ft 576 kts 47°
2026-04-30 12:43 4.32275 -84.72216 40848 ft 576 kts 47°
2026-04-30 12:43 4.37562 -84.66186 40846 ft 576 kts 47°
2026-04-30 12:44 4.42850 -84.60152 40844 ft 576 kts 47°
2026-04-30 12:44 4.48133 -84.54122 40844 ft 576 kts 47°
2026-04-30 12:45 4.53413 -84.48094 40843 ft 575 kts 47°
2026-04-30 12:45 4.58693 -84.42066 40843 ft 575 kts 47°
2026-04-30 12:46 4.63969 -84.36040 40845 ft 575 kts 47°
2026-04-30 12:46 4.69243 -84.30015 40844 ft 575 kts 47°
2026-04-30 12:47 4.74483 -84.24027 40841 ft 575 kts 47°
2026-04-30 12:47 4.79757 -84.17999 40845 ft 575 kts 47°
2026-04-30 12:48 4.85025 -84.11977 40843 ft 575 kts 47°
2026-04-30 12:48 4.90297 -84.05949 40847 ft 574 kts 47°
2026-04-30 12:49 4.95564 -83.99924 40845 ft 574 kts 47°
2026-04-30 12:49 5.00833 -83.93896 40845 ft 574 kts 47°
2026-04-30 12:50 5.06101 -83.87867 40845 ft 574 kts 47°
2026-04-30 12:50 5.11365 -83.81841 40844 ft 574 kts 47°
2026-04-30 12:51 5.16628 -83.75814 40843 ft 574 kts 47°
2026-04-30 12:51 5.21891 -83.69786 40844 ft 574 kts 47°
2026-04-30 12:52 5.27152 -83.63758 40844 ft 574 kts 47°
2026-04-30 12:52 5.32411 -83.57732 40840 ft 574 kts 47°
2026-04-30 12:53 5.37489 -83.51911 40843 ft 574 kts 47°
2026-04-30 12:53 5.42712 -83.45922 40841 ft 574 kts 47°
2026-04-30 12:54 5.47952 -83.39911 40842 ft 573 kts 47°
2026-04-30 12:54 5.53214 -83.33874 40840 ft 574 kts 47°
2026-04-30 12:55 5.57615 -83.28823 40843 ft 573 kts 47°
2026-04-30 12:55 5.62868 -83.22794 40845 ft 573 kts 47°
2026-04-30 12:56 5.68078 -83.16812 40844 ft 573 kts 47°
2026-04-30 12:56 5.73357 -83.10748 40846 ft 573 kts 47°
2026-04-30 12:57 5.78565 -83.04764 40846 ft 573 kts 47°
2026-04-30 12:57 5.83842 -82.98699 40846 ft 572 kts 47°
2026-04-30 12:58 5.89083 -82.92673 40848 ft 573 kts 47°
2026-04-30 12:58 5.94316 -82.86655 40846 ft 572 kts 47°
2026-04-30 12:59 5.99552 -82.80632 40847 ft 572 kts 47°
2026-04-30 12:59 6.04791 -82.74603 40848 ft 572 kts 47°
2026-04-30 13:00 6.09984 -82.68625 40847 ft 572 kts 47°
2026-04-30 13:00 6.15208 -82.62610 40847 ft 571 kts 47°
2026-04-30 13:01 6.20436 -82.56587 40849 ft 571 kts 47°
2026-04-30 13:01 6.25660 -82.50568 40845 ft 571 kts 47°
2026-04-30 13:02 6.30886 -82.44545 40849 ft 571 kts 47°
2026-04-30 13:02 6.36088 -82.38547 40847 ft 571 kts 47°
2026-04-30 13:03 6.41306 -82.32528 40847 ft 571 kts 47°
2026-04-30 13:03 6.46523 -82.26509 40855 ft 571 kts 47°
2026-04-30 13:04 6.51742 -82.20485 40853 ft 571 kts 47°
2026-04-30 13:04 6.56959 -82.14462 40857 ft 570 kts 47°
2026-04-30 13:05 6.62133 -82.08485 40858 ft 571 kts 47°
2026-04-30 13:06 6.69944 -81.99461 40851 ft 571 kts 47°
2026-04-30 13:06 6.75164 -81.93425 40853 ft 570 kts 47°
2026-04-30 13:07 6.80355 -81.87424 40854 ft 570 kts 47°
2026-04-30 13:07 6.85571 -81.81388 40852 ft 570 kts 47°
2026-04-30 13:08 6.90777 -81.75364 40849 ft 570 kts 47°
2026-04-30 13:08 6.95978 -81.69343 40849 ft 570 kts 47°
2026-04-30 13:09 7.01173 -81.63327 40848 ft 570 kts 47°
2026-04-30 13:09 7.06379 -81.57295 40849 ft 571 kts 47°
2026-04-30 13:10 7.11591 -81.51255 40848 ft 570 kts 47°
2026-04-30 13:10 7.16789 -81.45228 40851 ft 570 kts 47°
2026-04-30 13:11 7.21991 -81.39194 40852 ft 570 kts 47°
2026-04-30 13:11 7.27189 -81.33164 40854 ft 570 kts 47°
2026-04-30 13:12 7.32389 -81.27127 40853 ft 570 kts 47°
2026-04-30 13:12 7.37582 -81.21098 40855 ft 570 kts 47°
2026-04-30 13:13 7.45382 -81.12036 40855 ft 570 kts 47°
2026-04-30 13:14 7.53175 -81.02977 40860 ft 570 kts 47°
2026-04-30 13:14 7.60967 -80.93914 40868 ft 570 kts 47°
2026-04-30 13:15 7.68753 -80.84854 40873 ft 570 kts 47°
2026-04-30 13:16 7.73945 -80.78805 40871 ft 570 kts 47°
2026-04-30 13:16 7.79135 -80.72762 40871 ft 570 kts 47°
2026-04-30 13:17 7.86915 -80.63690 40869 ft 570 kts 47°
2026-04-30 13:18 7.94695 -80.54620 40871 ft 570 kts 47°
2026-04-30 13:18 8.02438 -80.45585 40863 ft 570 kts 47°
2026-04-30 13:19 8.07621 -80.39532 40860 ft 570 kts 47°
2026-04-30 13:19 8.12798 -80.33485 40862 ft 570 kts 47°
2026-04-30 13:20 8.17991 -80.27416 40857 ft 570 kts 47°
2026-04-30 13:20 8.23175 -80.21356 40861 ft 570 kts 47°
2026-04-30 13:21 8.28357 -80.15295 40855 ft 570 kts 47°
2026-04-30 13:22 8.36133 -80.06195 40855 ft 570 kts 47°
2026-04-30 13:22 8.43903 -79.97096 40855 ft 570 kts 47°
2026-04-30 13:23 8.51669 -79.87995 40857 ft 570 kts 47°
2026-04-30 13:24 8.61107 -79.76927 40851 ft 570 kts 47°
2026-04-30 13:25 8.71445 -79.64794 40841 ft 569 kts 47°
2026-04-30 13:26 8.84290 -79.49604 40838 ft 568 kts 49°
2026-04-30 13:28 8.97016 -79.34402 40861 ft 566 kts 48°
2026-04-30 13:28 9.04658 -79.25280 40858 ft 565 kts 48°
2026-04-30 13:29 9.14794 -79.13156 40853 ft 563 kts 48°
2026-04-30 13:31 9.27411 -78.98048 40854 ft 563 kts 48°
2026-04-30 13:32 9.40040 -78.82909 40853 ft 563 kts 49°
2026-04-30 13:33 9.50140 -78.70788 40855 ft 563 kts 49°
2026-04-30 13:34 9.57718 -78.61686 40853 ft 564 kts 49°
2026-04-30 13:35 9.67833 -78.49523 40852 ft 565 kts 49°
2026-04-30 13:36 9.77958 -78.37334 40853 ft 565 kts 49°
2026-04-30 13:36 9.85557 -78.28178 40858 ft 566 kts 49°
2026-04-30 13:37 9.93121 -78.19057 40861 ft 566 kts 49°
2026-04-30 13:38 10.00730 -78.09874 40865 ft 567 kts 49°
2026-04-30 13:39 10.10880 -77.97614 40870 ft 568 kts 49°
2026-04-30 13:40 10.18502 -77.88398 40870 ft 569 kts 49°
2026-04-30 13:40 10.23591 -77.82242 40870 ft 569 kts 49°
2026-04-30 13:41 10.28677 -77.76084 40867 ft 569 kts 49°
2026-04-30 13:41 10.33766 -77.69921 40869 ft 570 kts 49°
2026-04-30 13:42 10.38857 -77.63751 40869 ft 570 kts 49°
2026-04-30 13:42 10.46492 -77.54492 40870 ft 570 kts 49°
2026-04-30 13:43 10.51585 -77.48312 40863 ft 570 kts 49°
2026-04-30 13:43 10.56643 -77.42169 40870 ft 571 kts 49°
2026-04-30 13:44 10.61751 -77.35997 40871 ft 571 kts 49°
2026-04-30 13:44 10.66873 -77.29820 40868 ft 571 kts 49°
2026-04-30 13:45 10.73686 -77.21584 40872 ft 572 kts 49°
2026-04-30 13:46 10.78811 -77.15386 40872 ft 573 kts 49°
2026-04-30 13:46 10.83940 -77.09180 40871 ft 573 kts 49°
2026-04-30 13:47 10.89087 -77.02988 40873 ft 573 kts 49°
2026-04-30 13:47 10.94235 -76.96785 40873 ft 574 kts 49°
2026-04-30 13:48 10.99388 -76.90574 40872 ft 574 kts 49°
2026-04-30 13:48 11.04543 -76.84358 40874 ft 575 kts 49°
2026-04-30 13:49 11.09698 -76.78136 40872 ft 575 kts 49°
2026-04-30 13:49 11.14856 -76.71910 40873 ft 575 kts 49°
2026-04-30 13:50 11.20012 -76.65680 40874 ft 575 kts 49°
2026-04-30 13:50 11.27711 -76.56369 40874 ft 576 kts 49°
2026-04-30 13:51 11.32827 -76.50091 40873 ft 576 kts 50°
2026-04-30 13:51 11.37960 -76.43821 40874 ft 576 kts 49°
2026-04-30 13:52 11.43086 -76.37541 40875 ft 576 kts 49°
2026-04-30 13:52 11.48215 -76.31258 40873 ft 576 kts 49°
2026-04-30 13:53 11.53345 -76.24970 40875 ft 577 kts 49°
2026-04-30 13:53 11.58472 -76.18679 40876 ft 577 kts 49°
2026-04-30 13:54 11.63410 -76.12619 40881 ft 577 kts 49°
2026-04-30 13:54 11.68538 -76.06320 40878 ft 577 kts 49°
2026-04-30 13:55 11.73668 -76.00016 40880 ft 577 kts 49°
2026-04-30 13:55 11.78799 -75.93705 40883 ft 578 kts 49°
2026-04-30 13:56 11.83949 -75.87406 40880 ft 578 kts 49°
2026-04-30 13:56 11.89091 -75.81099 40884 ft 578 kts 49°
2026-04-30 13:57 11.94238 -75.74789 40885 ft 578 kts 49°
2026-04-30 13:57 11.99385 -75.68471 40886 ft 578 kts 49°
2026-04-30 13:58 12.07103 -75.58993 40889 ft 579 kts 49°
2026-04-30 13:59 12.12215 -75.52708 40889 ft 579 kts 49°
2026-04-30 13:59 12.17364 -75.46375 40891 ft 580 kts 49°
2026-04-30 14:00 12.22516 -75.40032 40889 ft 580 kts 49°
2026-04-30 14:00 12.30237 -75.30522 40896 ft 580 kts 49°
2026-04-30 14:01 12.35389 -75.24168 40899 ft 580 kts 50°
2026-04-30 14:01 12.40519 -75.17800 40902 ft 580 kts 50°
2026-04-30 14:02 12.45659 -75.11435 40900 ft 580 kts 50°
2026-04-30 14:02 12.50825 -75.05021 40901 ft 581 kts 50°
2026-04-30 14:03 12.55945 -74.98667 40902 ft 581 kts 50°
2026-04-30 14:03 12.61097 -74.92276 40898 ft 582 kts 50°
2026-04-30 14:04 12.66257 -74.85905 40900 ft 582 kts 50°
2026-04-30 14:04 12.71378 -74.79553 40903 ft 582 kts 50°
2026-04-30 14:05 12.76537 -74.73164 40906 ft 582 kts 50°
2026-04-30 14:05 12.81699 -74.66760 40911 ft 583 kts 50°
2026-04-30 14:06 12.89443 -74.57148 40910 ft 583 kts 50°
2026-04-30 14:07 12.97190 -74.47522 40913 ft 583 kts 50°
2026-04-30 14:08 13.04937 -74.37884 40916 ft 584 kts 50°
2026-04-30 14:08 13.12661 -74.28266 40916 ft 585 kts 50°
2026-04-30 14:09 13.17837 -74.21815 40917 ft 586 kts 50°
2026-04-30 14:10 13.25602 -74.12129 40918 ft 586 kts 50°
2026-04-30 14:10 13.30775 -74.05668 40917 ft 586 kts 50°
2026-04-30 14:11 13.35953 -73.99199 40921 ft 586 kts 50°
2026-04-30 14:11 13.41129 -73.92725 40921 ft 586 kts 50°
2026-04-30 14:12 13.46308 -73.86245 40921 ft 587 kts 50°
2026-04-30 14:12 13.51490 -73.79755 40922 ft 588 kts 50°
2026-04-30 14:13 13.56674 -73.73257 40923 ft 588 kts 50°
2026-04-30 14:13 13.61858 -73.66750 40926 ft 589 kts 50°
2026-04-30 14:14 13.67004 -73.60286 40928 ft 589 kts 50°
2026-04-30 14:14 13.72205 -73.53748 40929 ft 590 kts 50°
2026-04-30 14:15 13.77399 -73.47213 40930 ft 591 kts 50°
2026-04-30 14:15 13.82600 -73.40665 40930 ft 591 kts 50°
2026-04-30 14:16 13.87802 -73.34111 40931 ft 591 kts 50°
2026-04-30 14:16 13.93137 -73.27671 40931 ft 592 kts 48°
2026-04-30 14:17 13.98466 -73.21208 40936 ft 592 kts 48°
2026-04-30 14:17 14.03824 -73.14767 40937 ft 592 kts 48°
2026-04-30 14:18 14.09166 -73.08299 40937 ft 593 kts 48°
2026-04-30 14:18 14.17195 -72.98602 40935 ft 593 kts 48°
2026-04-30 14:19 14.25221 -72.88887 40937 ft 593 kts 48°
2026-04-30 14:20 14.30568 -72.82407 40942 ft 593 kts 48°
2026-04-30 14:20 14.38593 -72.72675 40943 ft 594 kts 48°
2026-04-30 14:21 14.43965 -72.66202 40943 ft 594 kts 47°
2026-04-30 14:22 14.52030 -72.56556 40947 ft 595 kts 48°
2026-04-30 14:22 14.60056 -72.46776 40946 ft 596 kts 49°
2026-04-30 14:23 14.70744 -72.33689 40948 ft 596 kts 49°
2026-04-30 14:24 14.78743 -72.23854 40952 ft 596 kts 48°
2026-04-30 14:25 14.89434 -72.10737 40951 ft 597 kts 48°
2026-04-30 14:26 14.97458 -72.00878 40950 ft 598 kts 48°
2026-04-30 14:27 15.05460 -71.91051 40947 ft 598 kts 48°
2026-04-30 14:27 15.10811 -71.84458 40959 ft 598 kts 48°
2026-04-30 14:28 15.18838 -71.74569 40951 ft 598 kts 48°
2026-04-30 14:28 15.24188 -71.67971 40957 ft 598 kts 48°
2026-04-30 14:29 15.33986 -71.55869 40956 ft 599 kts 48°
2026-04-30 14:31 15.48217 -71.38258 40959 ft 599 kts 48°
2026-04-30 14:31 15.56244 -71.28342 40962 ft 598 kts 47°
2026-04-30 14:32 15.64453 -71.18584 40965 ft 599 kts 47°
2026-04-30 14:33 15.69877 -71.12028 40963 ft 598 kts 47°
2026-04-30 14:33 15.77997 -71.02197 40966 ft 598 kts 48°
2026-04-30 14:34 15.83333 -70.95564 40966 ft 598 kts 47°
2026-04-30 14:34 15.88657 -70.89041 40969 ft 598 kts 48°
2026-04-30 14:35 15.96504 -70.79330 40968 ft 598 kts 47°
2026-04-30 14:36 16.01508 -70.73773 40958 ft 593 kts 38°
2026-04-30 14:36 16.08115 -70.68701 40953 ft 591 kts 33°
2026-04-30 14:37 16.14430 -70.63445 40963 ft 578 kts 36°
2026-04-30 14:37 16.17472 -70.60891 40956 ft 545 kts 35°
2026-04-30 14:37 16.20370 -70.58507 40952 ft 520 kts 34°
2026-04-30 14:38 16.25988 -70.53857 40957 ft 521 kts 35°
2026-04-30 14:38 16.31689 -70.49096 40957 ft 527 kts 35°
2026-04-30 14:39 16.36459 -70.45133 40959 ft 528 kts 35°
2026-04-30 14:39 16.42189 -70.40350 40958 ft 528 kts 35°
2026-04-30 14:40 16.50790 -70.33177 40960 ft 528 kts 35°
2026-04-30 14:40 16.56518 -70.28392 40963 ft 528 kts 35°
2026-04-30 14:41 16.62248 -70.23604 40965 ft 528 kts 35°
2026-04-30 14:41 16.67982 -70.18808 40969 ft 528 kts 35°
2026-04-30 14:42 16.73715 -70.14009 40971 ft 528 kts 35°
2026-04-30 14:42 16.79438 -70.09214 40972 ft 528 kts 35°
2026-04-30 14:43 16.85139 -70.04435 40975 ft 528 kts 35°
2026-04-30 14:43 16.90865 -69.99630 40975 ft 528 kts 35°
2026-04-30 14:44 16.96588 -69.94823 40981 ft 528 kts 35°
2026-04-30 14:44 17.02315 -69.90010 40986 ft 528 kts 35°
2026-04-30 14:45 17.05174 -69.87606 40526 ft 526 kts 35°
2026-04-30 14:45 17.08006 -69.85222 39847 ft 520 kts 35°
2026-04-30 14:45 17.10807 -69.82863 39170 ft 515 kts 35°
2026-04-30 14:45 17.13591 -69.80521 38469 ft 513 kts 35°
2026-04-30 14:46 17.16372 -69.78180 37773 ft 512 kts 34°
2026-04-30 14:46 17.19147 -69.75841 37101 ft 514 kts 34°
2026-04-30 14:46 17.21936 -69.73490 36423 ft 516 kts 34°
2026-04-30 14:46 17.24727 -69.71136 35743 ft 517 kts 34°
2026-04-30 14:47 17.27527 -69.68773 35064 ft 517 kts 33°
2026-04-30 14:47 17.30325 -69.66411 34383 ft 517 kts 33°
2026-04-30 14:47 17.33123 -69.64050 33670 ft 516 kts 33°
2026-04-30 14:47 17.35915 -69.61692 32981 ft 515 kts 33°
2026-04-30 14:48 17.38700 -69.59338 32300 ft 515 kts 33°
2026-04-30 14:48 17.41490 -69.56980 31624 ft 515 kts 33°
2026-04-30 14:48 17.44238 -69.54656 30954 ft 515 kts 33°
2026-04-30 14:48 17.47017 -69.52304 30277 ft 514 kts 33°
2026-04-30 14:49 17.49794 -69.49954 29549 ft 512 kts 33°
2026-04-30 14:49 17.52541 -69.47627 28877 ft 507 kts 34°
2026-04-30 14:49 17.55276 -69.45310 28209 ft 502 kts 34°
2026-04-30 14:49 17.57982 -69.43017 27552 ft 497 kts 34°
2026-04-30 14:50 17.63314 -69.38497 26254 ft 488 kts 35°
2026-04-30 14:50 17.65939 -69.36270 25613 ft 483 kts 36°
2026-04-30 14:51 17.71115 -69.31877 24350 ft 474 kts 37°
2026-04-30 14:51 17.73661 -69.29715 23729 ft 469 kts 37°
2026-04-30 14:51 17.78664 -69.25460 22454 ft 457 kts 37°
2026-04-30 14:52 17.81120 -69.23373 21857 ft 451 kts 37°
2026-04-30 14:52 17.85947 -69.19266 20681 ft 440 kts 37°
2026-04-30 14:52 17.88266 -69.17289 20116 ft 418 kts 37°
2026-04-30 14:53 17.92577 -69.13618 19062 ft 382 kts 37°
2026-04-30 14:53 17.94603 -69.11893 18567 ft 368 kts 37°
2026-04-30 14:54 17.98450 -69.08614 17584 ft 344 kts 37°
2026-04-30 14:54 18.02056 -69.05539 16703 ft 325 kts 37°
2026-04-30 14:55 18.05461 -69.02633 15873 ft 312 kts 37°
2026-04-30 14:55 18.07138 -69.01203 15465 ft 310 kts 37°
2026-04-30 14:55 18.10462 -68.98365 14663 ft 305 kts 37°
2026-04-30 14:56 18.13733 -68.95581 13890 ft 300 kts 37°
2026-04-30 14:56 18.16943 -68.92845 13094 ft 295 kts 38°
2026-04-30 14:57 18.18416 -68.91589 12740 ft 293 kts 38°
2026-04-30 14:57 18.21571 -68.88897 11994 ft 291 kts 38°
2026-04-30 14:58 18.24696 -68.86229 11251 ft 288 kts 38°
2026-04-30 14:58 18.26244 -68.84909 10881 ft 285 kts 38°
2026-04-30 14:58 18.29276 -68.82319 10167 ft 276 kts 38°
2026-04-30 14:59 18.31946 -68.79553 9439 ft 266 kts 59°
2026-04-30 15:00 18.34360 -68.74418 8438 ft 257 kts 64°
2026-04-30 15:00 18.35912 -68.71070 7777 ft 251 kts 64°
2026-04-30 15:01 18.37425 -68.67809 7141 ft 245 kts 64°
2026-04-30 15:01 18.38168 -68.66206 6828 ft 242 kts 64°
2026-04-30 15:01 18.39618 -68.63079 6207 ft 237 kts 64°
2026-04-30 15:02 18.40334 -68.61530 5896 ft 234 kts 64°
2026-04-30 15:02 18.41043 -68.59997 5597 ft 231 kts 64°
2026-04-30 15:03 18.43179 -68.55542 4711 ft 224 kts 54°
2026-04-30 15:03 18.45731 -68.53801 4130 ft 229 kts 16°
2026-04-30 15:04 18.48892 -68.54014 3558 ft 229 kts 353°
2026-04-30 15:04 18.52933 -68.52112 2986 ft 208 kts 54°
2026-04-30 15:05 18.54436 -68.47716 1807 ft 237 kts 74°
2026-04-30 15:06 18.55324 -68.44671 1335 ft 199 kts 75°
2026-04-30 15:06 18.56016 -68.42035 1021 ft 161 kts 75°
2026-04-30 15:07 18.56479 -68.39926 592 ft 145 kts 89°
2026-04-30 15:07 18.56598 -68.37901 127 ft 136 kts 86°
2026-04-30 15:08 18.56725 -68.36530 47 ft 44 kts 83°
2026-04-30 15:08 18.56483 -68.36331 45 ft 16 kts 37°
2026-04-30 15:09 18.56570 -68.36331 45 ft 0 kts 358°